This is the latest recevied weather packets stored in our database for station/object NO9B. If no packets are shown the sender has not sent any weather packets the latest 10 day(s).
| Time | Temp. | Humidity | Pressure | Rain* | Wind** | Luminosity | Snow |
|---|---|---|---|---|---|---|---|
| 1788023334 | 24.44° C | 75% | 1020.8 hPa | 0 mm | - | 241 W/m² | - |
| 1788023033 | 23.89° C | 76% | 1021 hPa | 0 mm | - | 88 W/m² | - |
| 1788022731 | 23.89° C | 75% | 1021 hPa | 0 mm | - | 67 W/m² | - |
| 1788022430 | 23.89° C | 73% | 1021 hPa | 0 mm | - | 81 W/m² | - |
| 1788022125 | 23.89° C | 75% | 1021.2 hPa | 0 mm | - | 102 W/m² | - |
| 1788021824 | 23.89° C | 75% | 1021.2 hPa | 0 mm | - | 107 W/m² | - |
| 1788021523 | 23.89° C | 74% | 1021.4 hPa | 0 mm | - | 133 W/m² | - |
| 1788021217 | 23.89° C | 73% | 1021.3 hPa | 0 mm | - | 106 W/m² | - |
| 1788020913 | 23.89° C | 75% | 1021.4 hPa | 0 mm | - | 84 W/m² | - |
| 1788020612 | 23.89° C | 74% | 1021.5 hPa | 0 mm | - | 86 W/m² | - |
| 1788020308 | 23.89° C | 75% | 1021.6 hPa | 0 mm | - | 117 W/m² | - |
| 1788020004 | 23.89° C | 74% | 1021.5 hPa | 0 mm | - | 127 W/m² | - |
| 1788019704 | 23.89° C | 74% | 1021.6 hPa | 0 mm | - | 139 W/m² | - |
| 1788019403 | 23.33° C | 76% | 1021.7 hPa | 0 mm | - | 140 W/m² | - |
| 1788019102 | 23.33° C | 77% | 1021.8 hPa | 0 mm | - | 135 W/m² | - |
| 1788018802 | 22.78° C | 78% | 1021.6 hPa | 0 mm | - | 135 W/m² | - |
| 1788018497 | 22.78° C | 78% | 1021.7 hPa | 0 mm | - | 128 W/m² | - |
| 1788018196 | 22.22° C | 78% | 1021.7 hPa | 0 mm | - | 113 W/m² | - |
| 1788017893 | 22.22° C | 77% | 1021.6 hPa | 0 mm | - | 98 W/m² | - |
| 1788017588 | 22.22° C | 78% | 1021.6 hPa | 0 mm | - | 86 W/m² | - |
| 1788017285 | 21.67° C | 80% | 1021.7 hPa | 0 mm | - | 85 W/m² | - |
| 1788016981 | 21.67° C | 79% | 1021.8 hPa | 0 mm | - | 86 W/m² | - |
| 1788016680 | 21.67° C | 80% | 1021.7 hPa | 0 mm | - | 77 W/m² | - |
| 1788016378 | 21.67° C | 80% | 1021.6 hPa | 0 mm | - | 68 W/m² | - |
| 1788016078 | 21.67° C | 80% | 1021.7 hPa | 0 mm | - | 66 W/m² | - |
* Rain latest hour (hover to see other rain measurements)
** Current wind speed in m/s (hover to see current wind gust speed)